Theta_e
319 319 318 319 319 319 318 318 320 320 320 319 319 320 320 319 320 321 320 320 321 321 323 325 326 326 326 325 324 323 322 322 322 320 318 317 317 316 317 318 318 318 318 317
316 316 317 319 319 319 319 319 319 319 320 319 319 319 319 319 320 320 321 321 320 320 320 322 324 325 325 325 324 323 323 323 323 322 321 321 319 318 317 316 316 316 317 318
314 314 313 317 319 319 318 318 319 320 320 319 319 320 320 320 319 319 320 319 320 320 320 320 321 321 323 322 324 322 321 322 322 323 322 322 322 321 321 320 319 318 318 318
315 315 315 318 316 317 318 318 317 317 319 319 319 319 318 317 318 317 318 318 317 318 319 318 317 319 321 324 323 321 321 322 322 322 322 322 322 322 321 321 321 321 320 320
313 314 314 314 316 317 317 319 316 317 318 318 318 319 319 318 317 318 318 318 318 317 317 318 318 317 317 321 324 324 320 321 322 323 323 322 322 323 323 323 323 323 323 323
315 314 312 313 316 316 317 315 313 315 316 316 317 321 321 317 316 317 317 318 318 317 318 318 318 317 316 317 321 323 324 324 324 324 323 323 324 324 323 323 324 323 324 324
314 315 313 313 315 315 314 315 313 313 313 314 315 316 316 316 316 316 317 318 318 320 318 318 318 318 317 318 319 321 322 323 324 324 324 325 324 324 324 323 324 323 323 323
312 313 316 314 313 313 315 313 314 314 314 315 315 315 314 314 315 316 316 317 317 319 319 319 320 320 320 322 320 320 319 320 321 321 322 323 323 323 324 323 323 322 321 320
313 313 314 313 313 313 312 313 313 312 311 311 313 315 314 314 315 316 315 315 316 317 320 320 320 319 318 322 322 322 322 322 322 322 322 323 323 323 322 321 320 319 319 317
311 311 312 312 313 311 310 310 309 308 308 307 306 308 309 312 313 313 312 310 310 312 315 318 319 318 318 318 320 322 323 323 322 322 321 320 319 319 319 318 317 315 312 309
310 310 311 312 310 308 308 308 306 305 304 302 302 303 305 306 304 303 305 307 303 304 308 314 316 318 316 315 316 316 318 320 320 320 319 318 316 314 310 310 309 309 306 305
311 308 307 309 307 305 305 305 304 301 300 300 299 299 299 299 298 297 297 308 308 305 306 307 312 313 314 314 312 312 313 312 314 315 314 311 310 306 301 304 302 302 302 301
307 305 305 305 303 303 303 302 300 299 297 296 295 295 295 294 298 297 298 299 302 304 302 302 302 308 310 310 310 310 307 304 301 303 301 301 301 303 299 294 294 294 295 294
299 300 305 301 301 299 299 300 300 299 298 297 292 291 290 293 295 294 295 295 295 300 300 298 298 300 299 301 302 306 305 300 300 295 296 295 295 293 292 291 290 287 286 287
296 295 296 298 297 296 296 295 295 295 292 291 289 288 290 290 289 289 290 289 293 296 294 294 293 293 294 295 297 298 297 295 294 294 292 291 291 290 289 289 288 286 285 285
293 295 294 294 293 293 292 291 289 288 287 286 286 285 285 286 286 287 285 288 292 289 288 290 290 290 291 292 293 292 291 291 291 290 290 290 289 288 287 286 284 283 282 281
291 295 292 292 290 288 287 287 286 284 283 285 284 283 282 283 284 285 285 285 286 286 286 287 287 288 289 289 289 288 288 288 288 288 288 287 286 285 284 284 282 281 280 279
288 288 288 288 288 286 284 283 283 283 282 283 284 284 284 283 281 281 282 284 284 285 284 284 285 286 287 287 287 287 286 286 286 285 285 284 284 282 281 281 280 279 278 278
285 285 284 284 283 283 282 281 281 281 282 282 283 283 282 282 281 282 282 283 283 283 282 283 284 285 285 285 285 284 284 284 283 281 280 281 280 279 277 276 275 274 273 273
282 282 281 280 281 281 280 280 281 281 281 282 282 282 281 280 280 281 282 281 280 279 281 282 282 282 281 282 282 282 281 281 280 279 277 275 274 274 274 273 272 271 271 270
280 280 280 280 280 280 280 281 281 281 280 281 281 280 280 279 279 278 278 278 276 276 276 276 276 276 275 275 276 275 275 274 274 273 273 272 271 271 270 270 270 269 269 268
280 280 280 280 280 280 280 280 281 280 280 280 279 278 278 278 277 276 275 273 273 273 273 273 273 273 273 273 273 273 272 272 271 271 271 270 270 269 269 269 269 268 268 268
280 280 280 280 280 279 280 280 279 279 279 279 278 278 277 275 273 273 272 272 271 272 272 272 271 271 272 272 271 271 271 271 271 270 270 270 270 269 269 269 268 268 268 268
280 280 280 280 279 279 279 277 277 277 277 276 276 274 272 272 271 271 271 270 270 271 271 270 270 270 271 271 270 270 270 270 270 269 269 269 269 269 268 268 268 268 268 268
280 279 279 279 278 276 276 275 275 274 274 273 272 272 272 271 271 270 270 270 270 270 270 270 270 270 270 270 269 269 269 269 269 268 268 268 268 268 268 268 268 267 267 267
279 279 278 277 276 275 274 274 274 273 272 271 271 271 271 270 269 269 269 269 269 269 269 269 269 269 269 269 268 268 268 268 268 268 267 267 267 267 267 267 267 267 267 267
278 276 275 275 275 274 274 273 272 271 271 270 269 269 269 269 269 269 269 269 269 269 268 268 268 268 268 268 267 267 267 267 267 267 267 266 266 266 266 266 266 266 266 266
Wind_Speed
2 0 1 1 3 9 13 13 13 10 11 11 11 9 11 18 16 14 16 15 13 13 13 16 22 25 28 29 31 33 34 37 41 41 39 38 39 39 41 43 44 43 44 47
1 1 5 7 7 6 10 9 7 8 10 8 12 16 15 19 19 21 18 17 17 19 19 18 20 23 25 28 31 31 34 36 36 37 38 41 41 41 40 41 42 41 41 42
2 2 4 7 13 5 5 4 4 5 4 7 8 10 15 18 12 20 20 20 18 16 16 17 20 23 25 27 27 31 33 34 34 33 34 35 35 36 39 40 39 41 42 39
2 6 3 3 4 0 7 8 6 6 6 7 11 15 10 14 14 17 21 20 19 12 10 13 18 20 25 22 27 31 35 33 33 33 33 30 29 30 30 30 32 34 33 33
4 6 7 5 4 2 2 5 6 6 7 9 14 11 5 17 21 20 20 18 17 18 18 19 20 20 20 22 26 27 34 36 34 31 31 30 30 28 25 25 27 27 27 26
2 4 6 3 6 2 2 4 7 6 9 10 14 7 5 20 21 22 24 23 22 21 20 20 18 18 18 19 22 28 27 26 26 28 29 29 27 27 29 26 25 21 20 22
9 6 4 2 1 1 6 2 11 11 12 13 9 11 20 18 19 19 20 22 24 17 15 18 20 18 15 14 17 19 21 23 22 23 24 23 27 28 24 21 20 21 24 25
10 7 6 5 2 4 7 7 12 14 16 17 19 22 19 20 19 18 18 17 21 19 16 14 15 12 10 7 14 16 18 20 22 23 26 25 24 21 19 20 23 21 23 23
7 7 5 7 6 6 7 6 10 13 15 17 19 20 18 16 16 13 11 14 14 17 16 15 13 5 5 4 6 8 10 13 15 17 17 18 19 19 19 19 21 19 21 21
1 3 2 4 4 11 12 10 10 12 15 16 18 17 16 14 12 10 10 13 13 12 17 17 15 11 4 4 4 4 6 10 13 15 17 16 16 16 16 17 18 18 19 18
4 5 4 5 9 12 14 12 14 14 15 16 17 16 14 10 11 9 8 8 11 13 14 17 17 14 8 2 3 7 10 11 12 11 11 12 12 11 11 11 10 13 15 17
4 5 4 5 12 14 14 16 15 15 15 15 15 14 11 8 10 10 10 7 9 11 9 11 11 11 13 11 4 4 10 12 14 15 15 15 15 14 14 11 11 11 13 14
2 6 7 10 1 7 12 13 12 12 12 12 12 11 9 7 8 9 8 8 8 9 12 11 9 4 6 8 13 14 6 8 14 16 18 20 19 18 19 18 17 15 13 12
6 10 4 8 6 10 10 11 12 11 11 12 10 9 9 6 6 7 8 9 8 7 7 9 9 9 11 6 3 0 4 8 8 10 15 17 19 23 24 26 27 26 22 20
9 8 7 9 3 7 8 8 7 8 9 8 9 8 5 7 8 9 10 11 11 12 12 13 14 16 13 10 8 8 9 12 14 16 18 21 22 23 22 23 23 22 19 15
12 7 5 5 5 7 7 7 6 6 6 6 8 9 11 12 14 17 17 16 22 25 24 23 25 23 20 19 19 20 22 22 23 24 24 22 21 21 19 18 18 16 13 11
11 6 9 6 6 6 6 5 5 6 6 7 10 12 15 18 21 25 24 25 27 26 26 25 25 22 21 22 22 23 23 20 19 21 21 18 17 16 15 14 13 12 11 9
6 5 5 4 2 3 6 6 6 7 9 12 14 15 18 20 22 23 25 25 25 25 26 23 20 19 19 18 17 15 16 16 15 17 17 15 15 14 13 12 11 9 8 6
6 4 5 5 5 7 9 9 11 13 16 18 19 21 21 20 20 21 21 23 24 25 24 19 17 18 18 16 15 13 14 14 14 15 14 13 12 12 11 10 9 9 8 6
9 10 10 11 11 12 15 16 18 20 20 21 21 22 21 20 19 18 18 24 23 20 15 13 13 14 13 12 10 11 11 11 11 11 11 10 11 11 10 9 9 8 7 6
12 13 15 17 18 18 18 18 20 21 20 19 20 20 18 16 15 15 17 19 18 14 12 11 11 12 11 10 9 10 10 10 10 10 10 9 10 9 8 7 7 6 6 6
14 16 18 19 20 21 19 19 20 20 20 19 19 17 15 15 15 16 17 16 13 11 11 12 13 12 11 10 11 11 11 10 10 10 10 10 9 9 8 7 6 5 5 5
17 18 19 19 19 20 18 17 16 15 15 13 12 12 12 11 10 9 11 13 12 12 12 13 12 12 11 11 12 11 11 11 11 10 9 9 8 7 6 6 5 5 5 6
15 15 16 15 15 14 15 13 11 11 11 10 9 9 9 9 10 11 12 11 11 11 11 11 11 11 10 11 11 10 10 10 9 8 8 7 6 5 5 5 5 6 7 8
11 11 10 9 9 9 9 8 8 8 8 8 8 8 8 8 8 9 9 10 10 10 10 9 9 9 9 9 9 8 8 8 7 6 6 5 5 5 6 6 7 8 9 10
6 5 5 6 7 6 5 5 6 6 6 6 6 7 7 8 8 8 8 8 7 7 7 7 7 7 7 7 7 7 7 6 6 6 6 6 7 7 8 9 10 10 11 11
5 6 5 4 4 3 3 4 4 5 5 5 5 5 5 5 6 6 6 7 7 7 7 7 7 7 7 7 8 8 8 8 8 8 9 9 10 10 11 11 11 11 11 12
Wind_Direction
207 190 3 215 252 245 237 241 246 257 238 252 270 279 295 310 300 307 296 279 261 241 223 222 218 217 218 221 220 219 218 222 228 231 229 228 230 232 233 235 236 236 238 242
260 8 262 262 265 238 231 228 241 250 263 277 290 298 291 292 307 293 307 290 276 263 256 238 227 226 220 221 220 218 220 229 228 228 230 235 235 235 236 239 239 239 240 241
201 329 305 240 226 199 139 127 194 210 25 346 328 320 319 310 316 302 301 316 313 298 275 259 249 248 234 232 222 223 224 225 225 224 228 231 234 235 238 240 242 243 244 243
264 337 243 76 14 119 112 81 47 45 2 355 340 319 19 25 347 319 315 316 320 313 318 302 276 252 248 227 229 233 233 228 227 227 227 225 226 230 231 232 236 241 242 241
211 229 271 219 153 124 287 115 45 26 17 1 344 312 90 17 4 353 339 322 308 306 302 309 306 279 256 240 234 227 233 233 230 226 227 224 226 227 227 228 234 239 246 252
162 225 224 71 125 97 199 171 24 8 7 352 340 340 347 345 345 344 348 347 332 312 308 301 297 291 273 255 231 232 230 226 224 224 225 225 224 224 227 227 234 240 246 251
217 241 244 234 67 195 227 44 349 348 342 338 324 317 312 324 330 332 339 345 348 337 320 305 301 299 286 270 247 238 228 225 222 222 223 217 215 223 224 227 226 237 240 244
220 229 237 347 206 268 21 348 338 347 341 328 313 302 301 310 320 327 332 349 2 354 346 326 313 314 288 261 241 242 232 225 220 216 216 216 218 213 213 224 223 222 231 233
198 208 113 60 64 54 21 1 353 338 338 340 330 320 313 307 322 332 342 350 3 10 5 351 337 349 330 306 293 270 238 215 209 205 206 200 202 201 203 211 223 223 223 223
254 117 80 58 63 23 10 4 353 348 343 346 340 333 328 331 336 345 349 358 2 12 33 25 12 360 58 107 140 212 197 187 184 180 184 187 191 197 209 214 217 218 215 208
251 265 349 96 20 355 353 355 354 355 354 349 345 340 344 344 350 353 354 356 15 18 34 44 36 5 348 27 149 182 183 179 173 174 182 185 186 191 197 197 206 209 195 187
296 63 0 320 341 337 344 346 348 348 350 351 345 343 351 357 358 1 6 0 346 9 32 51 53 45 20 351 342 218 180 168 171 174 174 169 166 161 155 153 161 170 173 179
12 319 290 292 63 326 343 342 341 351 355 356 353 351 1 8 355 344 358 21 13 10 12 12 28 78 82 13 341 348 285 183 160 156 154 153 150 145 142 128 126 128 141 142
2 348 300 50 330 327 334 337 330 328 328 337 353 358 12 11 30 23 37 50 57 54 47 34 27 35 37 25 50 177 221 179 167 135 130 126 124 125 126 123 117 105 102 107
348 344 310 298 262 324 333 342 337 339 340 350 359 7 22 44 57 75 73 68 78 70 71 69 61 58 56 58 75 100 108 105 112 109 106 105 109 108 108 108 108 109 110 106
323 320 358 4 333 336 346 358 13 15 15 30 45 52 67 82 89 89 86 95 89 82 79 80 77 74 75 79 87 95 98 102 106 107 105 105 108 107 107 107 108 110 109 104
344 335 332 346 358 8 14 23 46 61 74 93 96 94 92 92 94 90 90 87 90 88 85 82 82 86 86 88 91 94 98 100 102 104 103 105 104 105 108 111 110 111 111 116
343 341 341 353 20 62 61 69 89 100 98 109 113 112 106 97 90 91 93 92 89 86 79 76 78 79 80 79 83 88 93 97 98 97 103 106 105 106 104 104 101 99 94 90
36 43 51 71 84 91 91 95 104 111 114 115 116 108 103 101 98 94 94 91 83 77 70 71 72 73 73 74 76 77 79 79 80 83 86 94 94 93 92 91 89 85 81 74
65 72 80 84 95 102 109 112 115 114 114 114 112 109 104 99 95 93 88 80 71 69 67 66 63 64 65 64 63 68 72 76 78 80 82 83 81 78 78 83 79 73 69 67
87 94 99 102 102 105 108 113 114 111 112 112 109 105 103 102 99 87 73 71 66 61 58 57 57 58 57 59 60 67 71 73 76 80 78 74 74 76 75 70 69 71 67 65
99 100 100 102 103 103 105 107 108 109 107 104 102 98 92 80 70 68 69 65 55 47 49 53 56 55 57 61 66 69 72 74 75 74 72 70 70 71 70 67 62 55 43 31
101 103 104 103 103 104 106 104 103 102 101 97 91 84 78 74 73 67 56 52 47 43 49 54 55 55 56 63 66 68 70 70 71 70 71 70 67 63 57 49 37 23 9 357
105 104 103 106 109 108 100 94 92 89 88 86 83 81 71 63 60 60 55 51 50 49 51 56 56 56 58 62 62 61 60 59 58 56 53 49 45 38 27 13 360 348 338 331
110 110 110 104 92 86 89 88 85 83 82 80 77 71 67 72 68 62 55 49 47 47 47 48 45 44 47 50 50 49 45 41 38 34 27 16 6 357 349 342 334 329 326 326
116 110 104 105 97 93 91 90 87 81 77 75 73 73 69 65 60 54 50 49 47 46 46 45 41 37 35 31 26 22 18 11 5 358 351 345 341 337 335 333 332 331 330 328
107 96 84 89 101 101 95 91 89 83 89 99 95 82 74 66 59 53 51 48 44 40 36 31 25 18 12 5 0 356 353 348 346 341 337 335 333 332 331 330 329 328 326 323